"Pseudo-MPEC" for P11pnTe

Created 2021 Nov 27 22:07:16 UT using Find_Orb

Click here for an explanation of pseudo-MPECs

 
 Astrometry: 
     P11pnTe  C2021 11 25F=Vr,Eo/,(qXY8PhIVAWu:mF:3./2ULhMX4vB4($_`]wj%FG1u;XF51
     P11pnTe  C2021 11 25AUl]UJs'89Lv5;$:wR.WR.$d)?B$NAstrometryh;lCe?$X?r^o-F51
     P11pnTe  C2021 11 25ys!Tky,SV8a4VD-y5A\?]!wouoTjWSXa/1GcA`$/#o%Rkwh05ia*F51
     P11pnTe  C2021 11 25dW^/hlMFS\2!yS;$=1'Y[`eL^S6sww#;.Jv.wC;Z/p317YwrmXYXF51
     P11pnTe  C2021 11 25*qf@jcqG$c)Kyg:.]N%I?^8QXKdbBP\fm-gK3+T6V[iwOR5#W8w;F51
     P11pnTe  C2021 11 258iGp:126aHVTUC%iN4Y_IH\xTqV1/SMGvtqj_)Fredacted;Q6TaF51
     P11pnTe |C2021 11 27Y3*bGcGpe]I@U%+22fb`7REAXkLny3'3=iZZj+NTt]3%!y8AaRY9807
     P11pnTe |C2021 11 27xKCsC:TV1xjFhOFp]@SJyUIkPdD/WBc\click?jUhereb^drIbco807
     P11pnTe |C2021 11 27PlforoGPiTi/$4`hXIT3\tWl6;explanationV/dL4H)Ins$IgMP807

Station data:
(807) Cerro Tololo Observatory, La Serena  (S30.169136 W70.805900)  Chile.
(F51) Pan-STARRS 1, Haleakala  (N20.707235 W156.255910)  US/Hawaii.
   Observers N. Primak, A. Schultz, S. Watters, J. Thiel, T. Goggia. Measurer
   PS1 Science Consortium. 1.8-m Ritchey-Chrétien + CCD.

Orbital elements:  P11pnTe
   Perihelion 2021 Aug 22.929005 +/- 93.6857 TT = 22:17:46 (JD 2459449.429005)
Epoch 2021 Nov 27.0 TT = JDT 2459545.5   Earth MOID: 0.7476   AutoNEOCP
M  37.35171162 +/- 29.355972        (J2000 ecliptic)
n   0.38879280 +/- 0.0738698        Peri.  268.48661 +/- 52.960895
a   1.85919055 +/- 0.23549          Node   105.66821 +/- 6.3055310
e   0.1311411 +/- 0.0967236         Incl.   24.48216 +/- 6.0523540
P   2.54/925.93d           H 19.3   G  0.15   U 11.0  SR
q 1.61537410 +/- 0.236627    Q 2.10300700 +/- 0.552253
From 9 observations 2021 Nov. 25-27 (43.4 hr); mean residual 0".28
Residuals in arcseconds: 
211125 F51  .42-  .02-    211125 F51  .12-  .06-    211127 807  .31-  .49+    
211125 F51  .19-  .02-    211125 F51  .50+  .13+    211127 807  .16+  .30-    
211125 F51  .27-  .08-    211125 F51  .58+  .06+    211127 807  .07+  .20-    

Ephemerides (geocentric):
Date (UTC) HH   RA              Dec         delta   r     elong  mag " sig PA
---- -- -- --  -------------   -----------  ------ ------ -----  --- ---- ---
2021 11 27 22  04 35 41.406   -15 50 38.96  .78619 1.6803 142.6 20.9 9.01  44
2021 11 27 23  04 35 37.588   -15 49 56.21  .78619 1.6804 142.6 20.9 9.78  44
2021 11 28 00  04 35 33.770   -15 49 13.39  .78619 1.6804 142.6 20.9 10.6  44
2021 11 28 01  04 35 29.952   -15 48 30.50  .78618 1.6805 142.6 20.9 11.4  44
2021 11 28 02  04 35 26.134   -15 47 47.54  .78618 1.6805 142.6 20.9 12.2  44
2021 11 28 03  04 35 22.315   -15 47 04.50  .78618 1.6806 142.6 20.9 13.0  44
2021 11 28 04  04 35 18.496   -15 46 21.40  .78618 1.6806 142.6 20.9 13.9  44
2021 11 28 05  04 35 14.677   -15 45 38.23  .78618 1.6807 142.7 20.9 14.8  45
2021 11 28 06  04 35 10.858   -15 44 54.98  .78618 1.6807 142.7 20.9 15.7  45
2021 11 28 07  04 35 07.038   -15 44 11.67  .78618 1.6808 142.7 20.9 16.7  45
2021 11 28 08  04 35 03.219   -15 43 28.28  .78618 1.6809 142.7 20.9 17.6  45
2021 11 28 09  04 34 59.399   -15 42 44.83  .78618 1.6809 142.7 20.9 18.6  45
2021 11 28 10  04 34 55.579   -15 42 01.30  .78618 1.6810 142.7 20.9 19.6  45
2021 11 28 11  04 34 51.759   -15 41 17.70  .78618 1.6810 142.7 20.9 20.6  45
2021 11 28 12  04 34 47.939   -15 40 34.04  .78618 1.6811 142.7 20.9 21.7  45
2021 11 28 13  04 34 44.118   -15 39 50.30  .78618 1.6811 142.7 20.9 22.7  45
2021 11 28 14  04 34 40.298   -15 39 06.49  .78619 1.6812 142.8 20.9 23.8  45
2021 11 28 15  04 34 36.477   -15 38 22.61  .78619 1.6812 142.8 20.9 24.9  45
2021 11 28 16  04 34 32.656   -15 37 38.66  .78619 1.6813 142.8 20.9 26.1  45
2021 11 28 17  04 34 28.835   -15 36 54.65  .78619 1.6813 142.8 20.9 27.2  45
2021 11 28 18  04 34 25.014   -15 36 10.56  .78620 1.6814 142.8 20.9 28.4  45
2021 11 28 19  04 34 21.194   -15 35 26.40  .78620 1.6814 142.8 20.9 29.6  45
2021 11 28 20  04 34 17.373   -15 34 42.17  .78621 1.6815 142.8 20.9 30.8  45
2021 11 28 21  04 34 13.552   -15 33 57.87  .78621 1.6815 142.8 20.9 32.0  45
2021 11 28 22  04 34 09.730   -15 33 13.50  .78622 1.6816 142.9 20.9 33.3  45
2021 11 28 23  04 34 05.909   -15 32 29.07  .78622 1.6816 142.9 20.9 34.6  46
2021 11 29 00  04 34 02.088   -15 31 44.56  .78623 1.6817 142.9 20.9 35.9  46
2021 11 29 01  04 33 58.267   -15 30 59.98  .78623 1.6817 142.9 20.9 37.2  46
2021 11 29 02  04 33 54.446   -15 30 15.33  .78624 1.6818 142.9 20.9 38.6  46
2021 11 29 03  04 33 50.625   -15 29 30.61  .78625 1.6818 142.9 20.9 39.9  46
2021 11 29 04  04 33 46.804   -15 28 45.83  .78625 1.6819 142.9 20.9 41.3  46
2021 11 29 05  04 33 42.983   -15 28 00.97  .78626 1.6819 142.9 20.9 42.7  46
2021 11 29 06  04 33 39.162   -15 27 16.04  .78627 1.6820 142.9 20.9 44.2  46
2021 11 29 07  04 33 35.342   -15 26 31.05  .78628 1.6821 142.9 20.9 45.6  46
2021 11 29 08  04 33 31.521   -15 25 45.98  .78628 1.6821 143.0 20.9 47.1  46
2021 11 29 09  04 33 27.700   -15 25 00.85  .78629 1.6822 143.0 20.9 48.6  46
2021 11 29 10  04 33 23.880   -15 24 15.64  .78630 1.6822 143.0 20.9 50.1  46
2021 11 29 11  04 33 20.059   -15 23 30.37  .78631 1.6823 143.0 20.9 51.7  46
2021 11 29 12  04 33 16.239   -15 22 45.02  .78632 1.6823 143.0 20.9 53.2  46
2021 11 29 13  04 33 12.419   -15 21 59.61  .78633 1.6824 143.0 20.9 54.8  46
2021 11 29 14  04 33 08.599   -15 21 14.13  .78634 1.6824 143.0 20.9 56.4  46
2021 11 29 15  04 33 04.779   -15 20 28.58  .78635 1.6825 143.0 20.9 58.0  46
2021 11 29 16  04 33 00.960   -15 19 42.96  .78636 1.6825 143.0 20.9 59.7  46
2021 11 29 17  04 32 57.140   -15 18 57.27  .78637 1.6826 143.1 20.9 61.4  46
2021 11 29 18  04 32 53.321   -15 18 11.51  .78639 1.6826 143.1 20.9 63.1  46
2021 11 29 19  04 32 49.502   -15 17 25.68  .78640 1.6827 143.1 20.9 64.8  46
2021 11 29 20  04 32 45.683   -15 16 39.79  .78641 1.6827 143.1 20.9 66.5  46
2021 11 29 21  04 32 41.865   -15 15 53.82  .78642 1.6828 143.1 20.9 68.3  46